Location: Poznań
(52.4062°N, 16.9234°E)
Time: 08:02:21
(UTC+01:00)

ISS - Pass Details

Date: 29 January 2019
Orbit: 403 x 411 km, 51.6° (Epoch: 18 February)

Event Time Altitude Azimuth Distance (km) Brightness Sun altitude
Rises 18:16:33 0° 254° (WSW) 2,332 1.8 -15.7°
Reaches altitude 10° 18:18:38 10° 252° (WSW) 1,474 0.3 -16.1°
Maximum altitude 18:21:55 68° 169° (S) 446 -3.7 -16.6°
Enters shadow 18:22:46 45° 103° (ESE) 573 -3.5 -16.7°
